Showing default

TBA - TO BE ASSIGNED, 64487

Orbit data source: Space-Track

TBA - TO BE ASSIGNED named objects are likely recently launched satellites that are being tracked but not necessarily identified.

Loading next visibility...
Identifier
64487, 2025-133R
Orbit
LEO
Last TLE update
12 hours ago
Origin
Manufacturer
SpaceX/Seattle
Mission
Operational spacecraft
Bus & Motor
STARLINK V2MO, Unknown motor
Mass
575 kg wet, ~530 kg dry
Launch date (UTC)
2025-06-23 (1 week ago)
Launch vehicle
FALCON 9
Launch site
Air Force Eastern Test Range (AFETR)
Object type
Payload
Rocket body
Debris
Shape & HBR
Unknown
Radar Cross Section
RCS unknown

Expand to show TLE details & history

TLE from 12 hours ago
0 STARLINK-34477
1 64487U 25133R   25181.91668981 -.01154448  00000-0 -46514-2 0  9999
2 64487  53.1555 219.1991 0000910  77.7987 130.3887 15.88354809  2454
Epoch: 2025-06-30T22:00Z
TLE epoch observation values (Epoch: 2025-06-30T22:00:01.999Z)
Latitude
-22.411°
Longitude
167.86568°
Altitude
313.661 km
Speed
7.72 km/s
True Right ascension
03h 48m 22s
True Declination
-22° 16' 55"
Sunlit
Object was in daylight at epoch
Visualization orbit readout
Latitude
51.85622°
Longitude
75.94034°
Altitude
316.009 km
Speed
7.725 km/s
Apparent Right ascension
07h 19m 51s
Apparent Declination
52° 41' 32"
Sunlit
Object is in daylight
Visualization observer readout
Local Sidereal Time
21:16:34
Azimuth
17.284° NNE
Elevation
5.998°
Doppler factor
1
Orbital elements
Apogee altitude
307.767 km
Perigee altitude
306.55 km
Semi-major axis
6,685.295 km
Eccentricity
0.00009
Inclination
53.1555°
RAAN
219.1991°
Arg. of periapsis
77.7987°
True anomaly
Unknown
Mean anomaly
130.3887°
Eccentric anomaly
Unknown
Mean motion
3.97066 °/min
Orbital period
90.67 mins
BSTAR
-0.0046514
Loading maneuver chart data...
Loading SW <> Apogee altitude chart data...

TBA - TO BE ASSIGNED Visibility forecast

Observer location: undefined°, undefined°

Span
Click to sort rows by Start time (UTC) header in descending order
Start Az.
Max El. time (UTC)
Max El. Az.
Max El.
End time (UTC)
End Az.
4 mins2025-07-02 05:04:15.208Z231.815° WSW2025-07-02 05:05:15.208Z236.504° WSW39.291°2025-07-02 05:08:15.208Z48.979° ENE
|